Location: Unspecified
(33.9239°N, 118.0544°W)
Time: 00:40:58
(UTC-07:00)

Cosmos 2058 - Visible Passes

Search period start: 23 April 2014 00:00
Search period end: 03 May 2014 00:00
Orbit: 572 x 595 km, 82.5° (Epoch: 22 April)

Date Brightness Start Highest point End Pass type
(mag) Time Alt. Az. Time Alt. Az. Time Alt. Az.
23 Apr 2.9 05:16:44 10° S 05:20:59 78° W 05:25:15 10° N visible
24 Apr 3.2 05:23:01 10° SSW 05:27:09 51° W 05:31:18 10° N visible
25 Apr 5.8 03:54:19 10° ESE 03:56:35 14° E 03:58:52 10° NE visible
25 Apr 3.7 05:29:28 10° SW 05:33:20 34° W 05:37:14 10° NNW visible
26 Apr 5.4 03:59:26 10° SE 04:02:36 21° E 04:05:47 10° NE visible
26 Apr 4.2 05:36:07 10° SW 05:39:33 24° WNW 05:42:59 10° NNW visible
27 Apr 4.7 04:05:30 13° SSE 04:08:38 30° E 04:12:22 10° NNE visible
28 Apr 3.9 04:12:09 21° SSE 04:14:41 45° E 04:18:45 10° NNE visible
29 Apr 3.2 04:18:45 30° S 04:20:45 69° E 04:24:59 10° NNE visible
30 Apr 2.8 04:25:16 38° SSW 04:26:50 79° W 04:31:05 10° N visible
01 May 3.1 04:31:44 38° SW 04:32:56 51° W 04:37:05 10° N visible
02 May 5.6 03:01:44 14° E 03:02:19 14° E 03:04:33 10° NE visible
02 May 3.7 04:38:09 31° WSW 04:39:03 34° W 04:42:56 10° NNW visible
